Location: Bryzozowice
(50.3667°N, 18.9667°E)
Time: 18:45:06
(UTC+00:00)

STARLINK-1096 - Pass Details

Date: 24 January 2020
Orbit: 344 x 355 km, 53.0° (Epoch: 16 February)

Event Time Altitude Azimuth Distance (km) Brightness Sun altitude
Rises 17:13:30 0° 279° (W) 2,181 8.1 -17.4°
Reaches altitude 10° 17:15:34 10° 286° (WNW) 1,336 6.6 -17.7°
Enters shadow 17:18:26 48° 0° (N) 480 3.2 -18.2°
